Location: San Gennaro Vesuviano
(40.8833°N, 14.5333°E)
Time: 20:54:49
(UTC+00:00)

Cosmos 1244 Rocket - Pass Details

Date: 22 April 2021
Orbit: 954 x 997 km, 82.9° (Epoch: 10 May)

Event Time Altitude Azimuth Distance (km) Brightness Sun altitude
Rises 20:30:45 0° 354° (N) 3,725 8.3 -26.4°
Reaches altitude 10° 20:33:19 10° 357° (N) 2,770 7.5 -26.7°
Maximum altitude 20:39:40 69° 81° (E) 1,056 4.5 -27.5°
Enters shadow 20:39:58 68° 101° (E) 1,063 4.4 -27.5°
